Weather observations for the past three days for
Chesterfield County Airport
Imperial (Metric)
Date Time (edt) Wind (mph) Vis. (mi.) Weather Sky Cond. Temperature (ºF) Relative Humidity Wind Chill (°F) Heat Index (°F) Pressure Precipitation (in)
Air Dwpt 6 hour altimeter (in) sea level (mb) 1 hr 3 hr 6 hr
Max. Min.
05 13:56 NE 5 10.00 A Few Clouds FEW008 75.9 73 86 73 91% 76 29.9 1013.2 0.01 0.08
05 12:56 N 7 10.00 Thunderstorm in Vicinity Light Rain FEW013 BKN033 OVC080 75 73.9 96% 73 29.93 1014.3 0.07
05 11:56 NE 8 10.00 Mostly Cloudy FEW034 BKN080 84.9 71.1 63% 90 29.9 1013.2
05 10:56 NE 8 10.00 Fair CLR 84.9 72 65% 91 29.9 1013.3
05 09:56 NE 7 10.00 Fair CLR 81 71.1 72% 85 29.9 1013.1
05 08:56 N 3 10.00 Fair CLR 77 73 88% 78 29.88 1012.7
05 07:56 Calm 10.00 Fair CLR 73 71.1 73 70 94% 29.89 1012.9 0.01
05 06:56 NE 3 9.00 Fair CLR 70 70 100% 29.88 1012.7
05 05:56 W 5 10.00 Fair CLR 71.1 70 96% 29.86 1012.0
05 04:56 SW 3 10.00 Fair CLR 70 70 100% 29.86 1012.1 0.01 0.01
05 03:56 Calm 10.00 A Few Clouds FEW110 71.1 70 96% 29.87 1012.5
05 02:56 W 5 9.00 Fair CLR 71.1 70 96% 29.88 1012.7
05 00:56 W 3 10.00 Fair CLR 72 70 94% 29.93 1014.4
04 23:56 W 7 10.00 Fair CLR 72 71.1 97% 29.94 1014.7
04 22:56 SW 5 10.00 Fair CLR 73 72 96% 29.94 1014.8 0.01 0.02
04 21:56 SW 3 10.00 Partly Cloudy SCT004 73 73 100% 29.96 1015.3
04 20:56 Vrbl 3 10.00 Fair CLR 73.9 73 97% 29.93 1014.4 0.01
04 19:56 S 6 10.00 Thunderstorm Light Rain FEW055 SCT090 SCT110 73.9 72 99 73.9 94% 29.87 1012.5 0.02 0.05
04 18:56 W 5 10.00 Thunderstorm in Vicinity FEW065 SCT095 75.9 73.9 94% 75 29.96 1015.3 0.03
04 17:56 N 15 G 24 10.00 Thunderstorm in Vicinity BKN070 87.1 73.9 65% 95 29.92 1013.9
04 16:56 N 5 10.00 Fair CLR 95 73 49% 105 29.88 1012.5
04 15:56 SW 5 10.00 Fair CLR 95 73 49% 105 29.9 1013.1
04 14:56 Vrbl 6 10.00 Fair CLR 98.1 73.9 46% 110 29.92 1014.0
04 13:56 Vrbl 3 10.00 Fair CLR 97 73 98.1 79 46% 107 29.95 1014.8
04 12:56 Vrbl 3 10.00 Fair CLR 97 73 46% 107 29.95 1015.1
04 11:56 NW 6 10.00 Fair CLR 95 75.9 54% 108 29.97 1015.5
04 10:56 NW 7 10.00 Fair CLR 91.9 75.9 60% 104 29.97 1015.5
04 09:56 SW 7 10.00 Fair CLR 87.1 75.9 70% 98 29.96 1015.4
04 08:56 W 6 10.00 Fair CLR 82.9 75 77% 90 29.96 1015.4
04 07:56 SW 3 9.00 Fair CLR 79 75 82.9 75.9 88% 83 29.97 1015.6
04 06:56 S 3 10.00 Fair CLR 75.9 73 91% 76 29.96 1015.5
04 05:56 S 3 10.00 Fair CLR 77 73.9 90% 78 29.96 1015.3
04 04:56 S 5 10.00 Fair CLR 77 73 88% 78 29.97 1015.5
04 03:56 NE 3 10.00 Fair CLR 81 73.9 79% 86 29.96 1015.2
04 02:56 S 3 10.00 Fair CLR 82 73 74% 87 29.94 1014.4
04 01:56 W 6 10.00 Fair CLR 82.9 73.9 86 81 74% 89 29.95 1014.9
04 00:56 SW 5 10.00 Fair CLR 82.9 75 77% 90 29.97 1015.4
03 23:56 S 5 10.00 Partly Cloudy SCT085 82 75.9 82% 89 29.97 1015.6
03 22:56 S 6 10.00 Fair CLR 82.9 75.9 79% 91 29.97 1015.6
03 21:56 Calm 10.00 Fair CLR 82 78.1 88% 91 29.98 1016.0
03 20:56 Calm 10.00 Fair CLR 84 79 85% 96 29.99 1016.3
03 19:56 Calm 10.00 Fair CLR 84.9 78.1 96.1 84.9 80% 97 29.97 1015.6
03 18:56 E 5 10.00 Fair CLR 91 75.9 61% 103 29.95 1015.0
03 17:56 Calm 10.00 Fair CLR 93 78.1 62% 109 29.96 1015.3
03 16:56 S 6 10.00 Fair CLR 95 75 53% 107 29.97 1015.5
03 15:56 Calm 10.00 A Few Clouds FEW050 93.9 75 54% 106 29.99 1016.3
03 14:56 Vrbl 6 10.00 Mostly Cloudy BKN039 BKN065 93.9 78.1 60% 110 30 1016.8
03 13:56 SE 8 10.00 Fair CLR 93 79 93 75.9 64% 110 30.03 1017.6
03 12:56 Vrbl 3 9.00 Fair CLR 91 78.1 66% 106 30.04 1018.0
03 11:56 E 5 10.00 Fair CLR 90 77 66% 103 30.05 1018.4
03 10:56 N 6 10.00 Fair CLR 89.1 75.9 65% 100 30.06 1018.6
03 09:56 Vrbl 3 10.00 Fair CLR 82.9 75 77% 90 30.04 1018.1
03 08:56 Calm 4.00 Fair with Haze CLR 80.1 75 85% 85 30.06 1018.7
03 07:56 Calm 8.00 Fair CLR 75.9 75 75.9 72 97% 75 30.05 1018.5
03 06:56 NW 3 2.50 Fog/Mist OVC002 73 73 100% 30.04 1018.1
03 05:55 Calm 0.50 Fog OVC002 73.9 73.9 100% 30.04 1018.0
03 04:56 Calm 4.00 Fog/Mist BKN002 73.9 73.9 100% 30.02 1017.5
03 03:56 Calm 6.00 Fog/Mist CLR 73.9 73 97% 30.03 1017.7
03 02:56 Calm 8.00 Fair CLR 73.9 73.9 100% 30.03 1017.7
03 01:56 Calm 7.00 Fair CLR 75 73.9 79 75 96% 73 30.04 1018.2
03 00:56 Calm 10.00 Fair CLR 75.9 73.9 94% 75 30.05 1018.3
02 23:56 W 3 10.00 Fair CLR 75.9 75 97% 75 30.03 1017.9
02 22:56 Calm 10.00 Fair CLR 75.9 75 97% 75 30.04 1018.0
02 21:56 Calm 10.00 Fair CLR 77 75.9 96% 78 30.05 1018.4
02 20:56 Calm 10.00 Fair CLR 78.1 75 90% 81 30.05 1018.3
02 19:56 Calm 10.00 Fair CLR 78.1 75 96.1 78.1 90% 81 30.04 1018.0 0.03
02 18:56 Calm 10.00 Fair CLR 79 75 88% 83 30.05 1018.5 0.01
02 17:56 SE 6 10.00 Fair CLR 80.1 75.9 87% 85 30.06 1018.8 0.02
02 16:56 E 16 G 23 10.00 Thunderstorm SCT037 BKN055 BKN070 89.1 73.9 61% 98 30.06 1018.6
02 15:56 NE 6 10.00 Mostly Cloudy BKN055 95 73 49% 105 30.04 1018.0
Date Time (edt) Wind (mph) Vis. (mi.) Weather Sky Cond. Air Dwpt Max. Min. Relative Humidity Wind Chill (°F) Heat Index (°F) altimeter (in) sea level (mb) 1 hr 3 hr 6 hr
6 hour
Temperature (ºF) Pressure Precipitation (in)